GFSFLT2_sfc_30mbdewp_126.txt.gz
Dewpoint
68 69 69 70 70 71 71 71 70 70 70 70 71 70 70 70 70 70 70 70 70 70 69 68 68 68 68 68 67 65 61 59
68 68 69 69 70 70 70 70 70 70 70 70 70 70 70 69 70 70 70 70 70 69 68 68 68 67 67 67 66 66 65 64
68 68 68 68 68 70 70 70 70 70 70 70 70 70 70 69 69 70 70 70 70 69 68 67 67 67 67 66 66 66 65 65
70 69 68 67 68 68 69 70 70 70 70 70 70 70 70 69 69 69 69 69 69 68 67 67 67 67 66 66 66 65 65 64
69 69 68 67 67 67 68 68 69 68 69 69 69 69 69 69 69 69 69 69 69 68 67 67 67 66 65 65 65 65 64 64
60 61 66 67 68 67 67 67 68 68 68 68 68 69 69 68 68 68 68 68 68 67 67 67 66 66 65 65 65 64 64 63
48 50 51 54 56 61 67 66 67 67 68 69 69 68 68 68 68 68 68 68 67 66 66 66 66 66 65 65 64 64 63 63
45 46 46 48 49 51 55 60 65 67 67 68 69 68 68 68 67 67 68 68 67 67 66 66 66 65 65 65 64 63 63 63
41 43 43 44 45 48 51 53 55 60 66 67 67 66 67 67 67 67 67 67 67 67 66 66 65 65 64 64 64 63 63 63
38 41 42 42 43 44 47 49 52 54 58 62 65 66 66 66 67 66 67 67 67 67 66 65 65 64 63 64 63 63 63 63
35 37 37 39 41 42 43 44 47 49 51 53 56 62 66 65 66 66 66 66 66 66 66 65 64 64 63 63 63 62 62 63
32 34 34 35 37 38 39 41 41 43 46 49 50 53 57 63 65 66 65 66 65 66 65 65 64 64 63 62 62 62 62 62
30 30 31 32 33 33 34 36 38 41 43 45 50 53 55 57 63 59 62 65 65 65 65 64 64 64 62 62 62 62 62 62
28 28 29 30 31 32 33 34 36 38 41 43 46 48 50 53 54 63 60 64 64 64 64 63 64 64 61 60 59 60 62 62
27 27 27 29 30 29 30 31 32 34 37 39 42 44 45 47 50 54 62 59 58 63 63 63 60 63 63 59 57 56 58 61
27 27 27 28 29 28 29 29 29 31 33 36 38 41 43 45 48 51 55 62 62 62 63 63 61 59 63 62 59 57 56 56
27 27 27 28 28 28 28 28 29 30 32 33 35 37 39 42 46 49 52 57 61 61 62 62 62 60 60 57 59 57 55 55
28 28 28 28 28 28 28 28 28 29 30 31 33 35 38 41 43 47 52 54 55 61 61 62 61 61 61 60 58 56 55 55
27 28 28 28 27 28 28 29 29 29 30 31 32 33 35 38 41 44 47 50 53 58 61 61 61 61 61 60 61 58 58 57
29 29 28 27 27 28 29 32 32 32 33 33 34 35 36 38 40 41 43 46 48 52 58 61 60 60 61 59 58 58 61 60

GFSFLT2_sfc_30mbdewp_132.txt.gz
Dewpoint
68 68 69 70 70 71 70 70 70 70 70 70 70 70 70 69 70 71 70 70 71 70 69 68 68 68 67 67 66 63 64 65
67 67 68 68 69 69 70 70 70 70 70 70 70 70 69 69 69 70 70 70 70 70 68 67 68 68 67 67 66 64 59 62
67 67 67 67 68 68 69 70 69 70 70 70 69 69 69 69 69 70 70 69 69 69 68 67 67 67 67 67 66 65 60 62
53 56 59 65 67 67 67 68 68 68 69 69 69 69 69 69 69 69 69 69 69 69 68 67 67 67 67 67 66 65 64 64
46 48 50 52 54 59 64 67 68 68 67 68 69 69 68 68 68 68 68 69 69 69 68 67 66 66 66 66 65 65 64 64
44 43 44 47 50 52 54 56 60 65 66 66 67 68 67 67 67 68 68 68 68 68 67 66 66 66 65 65 65 64 64 64
37 37 37 41 44 47 49 50 55 58 62 61 63 67 67 67 67 67 67 66 67 66 66 66 65 65 65 64 64 64 64 63
32 34 33 34 37 41 44 47 50 52 55 57 58 60 61 66 66 66 66 66 67 66 66 65 64 64 64 65 64 64 64 63
30 31 31 31 32 36 39 43 46 47 47 51 54 57 57 58 61 65 65 67 67 66 66 65 64 64 64 64 64 64 63 63
29 29 29 30 31 33 34 38 43 42 42 49 49 48 52 57 57 61 60 61 66 66 65 64 64 64 63 64 64 64 63 63
27 28 28 29 30 31 31 35 38 34 41 41 42 44 52 51 56 58 62 59 55 64 65 64 63 63 63 63 63 63 63 63
27 28 28 28 29 29 30 31 31 32 36 35 39 46 46 50 51 54 56 57 56 57 61 63 63 63 62 62 63 63 63 63
28 28 29 28 28 28 28 28 29 31 32 35 38 36 44 44 44 46 48 51 54 59 58 60 60 62 60 61 62 62 62 62
28 28 29 28 29 29 28 28 29 29 31 32 32 36 35 36 39 44 47 48 52 55 59 57 56 58 60 58 56 59 60 62
28 27 28 28 29 28 28 29 29 29 29 29 30 31 33 36 39 42 43 46 48 52 57 58 55 57 58 58 54 53 58 61
27 27 28 28 28 28 27 27 27 28 30 30 31 32 33 34 36 37 39 41 44 47 51 59 59 55 58 62 61 59 53 54
27 28 27 26 26 27 27 27 27 28 29 30 31 32 33 34 36 37 39 42 44 46 50 52 58 57 56 56 57 57 59 56
26 28 26 27 27 27 26 27 27 27 28 29 33 34 35 35 36 37 37 39 41 45 50 53 55 57 56 55 55 55 54 56
25 26 26 26 26 28 28 29 30 30 30 32 33 34 35 36 37 37 38 37 40 41 43 45 48 57 56 55 56 57 58 57
24 25 25 25 25 26 27 29 30 32 32 33 34 34 35 37 38 39 39 39 38 40 42 43 45 47 52 57 56 56 59 58

GFSFLT2_sfc_30mbdewp_135.txt.gz
Dewpoint
69 69 69 69 69 70 70 70 69 70 69 70 70 70 70 70 70 71 70 71 71 71 70 69 68 68 67 67 67 66 66 66
59 65 69 69 69 68 69 69 69 69 69 69 69 69 69 69 70 70 69 70 70 70 69 68 68 68 67 67 67 64 65 66
50 52 53 59 65 68 68 68 68 69 69 69 69 69 69 68 68 69 70 69 70 70 69 67 67 67 67 66 66 65 63 63
43 46 49 51 53 57 61 67 69 68 67 68 69 69 69 69 68 68 69 69 69 69 69 67 67 65 66 67 65 65 65 62
39 38 41 45 47 50 51 55 60 65 67 67 67 68 68 68 68 68 68 68 68 68 68 68 66 66 65 65 65 66 64 64
35 36 35 37 42 42 45 47 52 57 60 62 66 66 66 67 67 67 68 67 68 68 68 67 67 67 66 65 65 65 64 64
32 33 33 33 35 38 40 43 47 50 52 55 58 60 64 66 67 67 67 67 67 67 67 67 67 67 66 66 65 64 64 64
31 31 32 32 33 36 37 40 44 45 44 50 54 55 56 58 61 66 66 67 67 66 66 66 66 66 65 65 65 64 64 64
30 30 31 32 32 34 34 36 41 42 39 48 44 45 46 53 57 59 63 62 62 63 65 66 66 65 65 65 65 65 64 64
29 30 31 31 31 32 32 33 39 36 37 43 39 42 48 51 52 54 58 61 57 56 55 57 63 64 64 64 64 65 64 64
29 30 31 31 31 31 32 33 34 32 37 35 37 44 43 44 49 52 53 55 58 55 53 51 53 61 63 64 65 64 64 64
29 29 30 31 30 30 30 31 31 32 32 32 38 37 36 40 43 44 45 47 53 57 55 52 50 56 62 63 64 64 64 64
28 28 30 29 29 29 29 29 30 30 31 32 33 34 36 35 37 39 42 43 46 51 56 57 56 58 59 61 63 63 63 63
27 28 29 28 28 28 29 29 29 30 31 32 33 33 34 34 35 37 39 42 43 45 51 57 58 59 59 57 55 59 62 62
26 28 28 28 28 27 28 28 29 29 30 31 32 33 34 35 35 36 38 40 41 43 47 51 55 58 58 54 50 49 54 61
26 28 27 26 27 27 27 27 26 28 28 30 31 32 34 35 36 36 37 38 39 40 42 45 50 55 58 58 55 56 53 50
25 27 26 27 27 27 27 26 27 28 29 29 30 32 33 34 35 37 38 39 39 40 42 44 47 50 56 56 57 56 56 55
25 26 25 26 26 25 26 26 27 28 29 29 30 32 34 35 36 37 38 39 38 40 41 41 43 47 50 57 55 56 54 54
24 25 25 25 25 25 25 25 26 28 29 30 30 32 33 34 36 37 38 39 39 39 39 40 42 45 49 50 57 56 55 54
24 24 24 24 24 24 25 25 26 28 29 30 32 33 34 35 35 36 38 40 40 41 40 40 41 43 45 47 48 57 56 56

GFSFLT2_sfc_30mbdewp_138.txt.gz
Dewpoint
55 56 58 64 68 68 69 69 69 69 69 69 70 70 69 69 69 69 69 70 70 70 70 69 68 68 68 68 67 66 63 61
49 51 53 56 60 63 68 68 68 68 69 69 69 69 69 69 69 69 69 69 70 70 70 69 68 68 67 67 67 67 65 61
46 46 48 52 55 57 61 64 68 68 68 69 69 67 66 66 66 67 68 69 69 69 69 69 68 67 67 67 67 65 62 61
43 43 44 46 47 52 54 58 62 65 65 67 68 68 68 67 66 67 67 68 68 68 69 68 67 63 64 67 65 62 61 59
39 40 41 42 43 45 47 50 54 59 58 60 63 67 67 68 67 67 67 67 65 66 66 66 64 62 60 64 62 62 60 59
36 37 38 39 40 40 42 43 47 50 52 55 58 61 64 66 66 66 66 67 67 66 66 65 64 63 62 62 63 62 61 59
35 35 37 37 37 40 40 41 43 47 45 50 54 56 56 57 62 66 66 66 67 66 66 66 65 64 64 64 63 63 62 60
35 34 36 37 37 39 39 38 40 43 41 44 47 47 49 51 56 62 64 66 66 66 65 66 66 65 64 64 64 62 62 62
33 33 35 37 36 36 36 35 38 40 38 42 44 44 45 48 51 56 59 62 64 62 59 60 64 65 64 64 65 63 62 62
32 33 34 36 35 35 35 35 37 36 35 39 39 43 46 46 44 47 50 56 58 60 57 57 57 60 58 59 64 64 62 62
31 33 34 35 34 34 34 35 35 34 35 35 37 41 42 41 40 44 47 47 49 56 57 55 53 55 56 58 59 64 65 63
31 31 34 33 32 32 32 32 33 33 34 34 36 37 38 39 40 40 43 42 43 46 55 56 56 53 55 57 57 57 65 64
30 30 33 31 30 30 30 30 31 32 33 34 36 36 37 38 37 38 40 41 41 43 47 52 56 56 54 55 58 61 63 64
29 29 31 30 29 30 30 30 30 31 33 34 34 35 36 36 37 37 38 39 41 43 45 44 48 53 54 57 54 55 60 62
28 29 29 29 30 28 29 29 29 29 30 31 32 33 34 35 37 38 38 39 39 41 43 44 44 49 57 52 50 49 49 55
28 29 29 28 29 28 28 27 27 27 28 29 31 32 33 34 35 36 37 39 39 40 41 42 42 44 50 56 57 53 47 48
28 29 28 28 28 28 27 26 26 26 27 28 29 30 31 32 34 35 35 38 39 39 41 42 43 43 43 49 57 57 56 55
28 28 27 28 27 27 26 25 25 26 26 27 28 29 31 32 34 36 36 37 38 40 40 41 42 42 42 47 52 53 54 54
28 27 27 27 26 25 25 25 25 26 26 27 28 29 29 31 32 34 35 36 38 40 41 41 40 42 43 45 49 52 53 55
28 26 26 26 26 25 25 25 25 26 26 27 28 29 30 33 34 34 34 35 37 38 40 40 40 40 41 43 45 48 51 52